Orbital Elements at Epoch 2459200.5 (2020-Dec-17.0) TDB
Reference: JPL 25 (heliocentric ecliptic J2000)
Element | Value | Uncertainty (1-sigma) | Units |
e | .08628559793410175 | 3.6299e-08 | |
a | 2.255267833980302 | 9.3772e-09 | au |
q | 2.060670700423765 | 8.2204e-08 | au |
i | 9.251700391785688 | 3.9167e-06 | deg |
node | 184.25503015756 | 2.2294e-05 | deg |
peri | 173.7070723775469 | 3.0692e-05 | deg |
M | 208.4969098629878 | 2.1374e-05 | deg |
tp | 2459721.112517271255 (2022-May-21.61251727) | 7.435e-05 | TDB |
period | 1237.07381841623 3.39 | 7.7155e-06 2.112e-08 | d yr |
n | .2910093113609759 | 1.815e-09 | deg/d |
Q | 2.449864967536838 | 1.0186e-08 | au |
|
| | Orbit Determination Parameters
Additional Information
|